Wetterdaten: aktuell Dienstag, 19.09.2017 15:30
Datum Zeit Wetterhtte Helligkeit Boden -10cm Boden 5cm Temp S Luftfeuchte Luftdruck Regen Wind Richtung Richtung Sonnenschein UV Taupunkt Windchill Windben
19.09.2017 15:30 15,9 C 6,6 C 12,1 C 15,9 C 17,2 C 64 % 1016,8 hPa 0,0 l/m 5,8 km/h N 4 0 min 0,5 UV-I 9,1 C 15,9 C 4,0 km/h
19.09.2017 15:25 15,9 C 6,9 C 12,1 C 15,9 C 17,3 C 64 % 1016,8 hPa 0,0 l/m 6,9 km/h W 274 0 min 0,5 UV-I 9,1 C 15,6 C 12,7 km/h
19.09.2017 15:20 15,9 C 7,8 C 12,1 C 15,9 C 17,4 C 63 % 1016,5 hPa 0,0 l/m 7,4 km/h N-NO 26 0 min 0,5 UV-I 8,9 C 15,4 C 14,9 km/h
19.09.2017 15:15 16,0 C 7,1 C 12,1 C 15,9 C 17,8 C 63 % 1016,5 hPa 0,0 l/m 7,4 km/h NW 319 0 min 0,6 UV-I 9,0 C 15,5 C 5,6 km/h
19.09.2017 15:10 16,0 C 8,1 C 12,0 C 15,9 C 18,0 C 63 % 1016,5 hPa 0,0 l/m 9,0 km/h N 4 0 min 0,6 UV-I 9,0 C 14,7 C 14,3 km/h
19.09.2017 15:05 16,0 C 9,0 C 12,0 C 15,9 C 18,4 C 62 % 1016,5 hPa 0,0 l/m 9,0 km/h W-NW 296 0 min 0,7 UV-I 8,7 C 14,7 C 9,8 km/h
19.09.2017 15:00 16,2 C 10,6 C 12,0 C 15,9 C 18,9 C 62 % 1016,5 hPa 0,0 l/m 7,2 km/h N-NO 26 0 min 1,2 UV-I 8,9 C 15,8 C 5,6 km/h
19.09.2017 14:55 16,1 C 10,0 C 12,0 C 15,7 C 19,8 C 63 % 1016,5 hPa 0,0 l/m 5,0 km/h W 274 0 min 1,2 UV-I 9,1 C 16,1 C 10,9 km/h
19.09.2017 14:50 16,0 C 12,3 C 11,9 C 15,6 C 20,0 C 63 % 1016,5 hPa 0,0 l/m 4,0 km/h N-NO 26 0 min 1,0 UV-I 9,0 C 16,0 C 2,7 km/h
19.09.2017 14:45 15,9 C 13,1 C 11,9 C 15,5 C 20,0 C 63 % 1016,5 hPa 0,0 l/m 3,7 km/h N-NW 341 0 min 1,1 UV-I 8,9 C 15,9 C 2,9 km/h
19.09.2017 14:40 15,9 C 9,3 C 11,9 C 15,5 C 21,4 C 63 % 1016,8 hPa 0,0 l/m 3,7 km/h W-NW 296 0 min 1,2 UV-I 8,9 C 15,9 C 7,2 km/h
19.09.2017 14:35 15,9 C 9,5 C 11,8 C 15,5 C 22,0 C 63 % 1016,8 hPa 0,0 l/m 5,6 km/h N-NO 26 0 min 1,3 UV-I 8,9 C 15,9 C 4,8 km/h
19.09.2017 14:30 16,0 C 13,0 C 11,8 C 15,6 C 23,9 C 63 % 1016,8 hPa 0,0 l/m 7,7 km/h N 4 0 min 2,0 UV-I 9,0 C 15,3 C 9,0 km/h
19.09.2017 14:25 16,1 C 14,9 C 11,8 C 15,5 C 26,1 C 63 % 1016,8 hPa 0,0 l/m 8,0 km/h N-NW 341 0 min 4,0 UV-I 9,1 C 15,3 C 12,7 km/h
19.09.2017 14:20 16,0 C 34,8 C 11,7 C 15,7 C 24,1 C 63 % 1016,9 hPa 0,0 l/m 8,8 km/h N 4 5 min 2,6 UV-I 9,0 C 14,8 C 14,1 km/h
19.09.2017 14:15 16,2 C 46,9 C 11,7 C 15,7 C 24,2 C 63 % 1016,9 hPa 0,0 l/m 7,7 km/h SW 229 5 min 2,8 UV-I 9,1 C 15,5 C 6,1 km/h
19.09.2017 14:10 16,2 C 34,0 C 11,6 C 15,8 C 24,1 C 63 % 1016,9 hPa 0,0 l/m 5,0 km/h N-NO 26 5 min 3,6 UV-I 9,1 C 16,2 C 14,3 km/h
19.09.2017 14:05 16,0 C 29,9 C 11,6 C 15,6 C 24,2 C 65 % 1016,9 hPa 0,0 l/m 3,7 km/h O-NO 71 5 min 3,6 UV-I 9,4 C 16,0 C 10,4 km/h
19.09.2017 14:00 15,9 C 28,9 C 11,6 C 15,6 C 20,9 C 65 % 1017,1 hPa 0,0 l/m 4,8 km/h O-NO 71 5 min 2,0 UV-I 9,3 C 15,9 C 4,2 km/h
19.09.2017 13:55 15,8 C 24,5 C 11,5 C 15,6 C 20,5 C 65 % 1017,1 hPa 0,0 l/m 6,1 km/h N-NO 26 0 min 1,6 UV-I 9,2 C 15,8 C 2,9 km/h
19.09.2017 13:50 15,8 C 19,2 C 11,5 C 15,6 C 19,8 C 65 % 1017,1 hPa 0,0 l/m 9,0 km/h N-NO 26 0 min 1,3 UV-I 9,2 C 14,5 C 4,8 km/h
19.09.2017 13:45 15,8 C 19,0 C 11,4 C 15,5 C 20,3 C 66 % 1017,1 hPa 0,0 l/m 8,8 km/h NO 49 0 min 1,3 UV-I 9,5 C 14,5 C 12,7 km/h
19.09.2017 13:40 15,8 C 18,2 C 11,4 C 15,5 C 20,4 C 66 % 1017,3 hPa 0,0 l/m 8,2 km/h N-NO 26 0 min 1,3 UV-I 9,5 C 14,8 C 11,9 km/h
19.09.2017 13:35 15,8 C 19,8 C 11,4 C 15,4 C 20,3 C 66 % 1017,3 hPa 0,0 l/m 6,4 km/h NW 319 0 min 1,4 UV-I 9,5 C 15,8 C 19,1 km/h
19.09.2017 13:30 15,7 C 21,4 C 11,4 C 15,2 C 20,0 C 65 % 1017,3 hPa 0,0 l/m 4,8 km/h W 274 0 min 1,3 UV-I 9,1 C 15,7 C 5,3 km/h
19.09.2017 13:25 15,6 C 19,6 C 11,4 C 15,3 C 20,2 C 65 % 1017,3 hPa 0,0 l/m 5,3 km/h W 274 0 min 1,1 UV-I 9,0 C 15,6 C 5,3 km/h
19.09.2017 13:20 15,6 C 17,2 C 11,3 C 15,2 C 20,0 C 65 % 1017,4 hPa 0,0 l/m 6,1 km/h N-NO 26 0 min 1,0 UV-I 9,0 C 15,6 C 9,6 km/h
19.09.2017 13:15 15,5 C 17,0 C 11,3 C 15,1 C 20,0 C 67 % 1017,4 hPa 0,0 l/m 6,4 km/h O-NO 71 0 min 1,1 UV-I 9,4 C 15,5 C 7,2 km/h
19.09.2017 13:10 15,5 C 16,3 C 11,1 C 15,0 C 21,2 C 68 % 1017,4 hPa 0,0 l/m 6,1 km/h W-SW 251 0 min 1,1 UV-I 9,6 C 15,5 C 5,6 km/h
19.09.2017 13:05 15,5 C 17,0 C 11,1 C 14,9 C 21,7 C 68 % 1017,4 hPa 0,0 l/m 6,6 km/h W-SW 251 0 min 1,1 UV-I 9,6 C 15,4 C 8,0 km/h
19.09.2017 13:00 15,5 C 17,3 C 11,1 C 14,9 C 22,1 C 68 % 1017,4 hPa 0,0 l/m 6,6 km/h N 4 0 min 1,2 UV-I 9,6 C 15,4 C 6,4 km/h
19.09.2017 12:55 15,4 C 17,9 C 11,1 C 14,7 C 22,5 C 68 % 1017,4 hPa 0,0 l/m 5,8 km/h NW 319 0 min 1,2 UV-I 9,5 C 15,4 C 8,2 km/h
19.09.2017 12:50 15,4 C 19,5 C 11,0 C 14,3 C 23,4 C 69 % 1017,4 hPa 0,0 l/m 3,5 km/h N 4 0 min 1,6 UV-I 9,7 C 15,4 C 2,9 km/h
19.09.2017 12:45 15,2 C 22,1 C 11,0 C 14,2 C 26,3 C 70 % 1017,4 hPa 0,0 l/m 3,7 km/h SO 139 0 min 2,9 UV-I 9,8 C 15,2 C 4,8 km/h
19.09.2017 12:40 14,8 C 23,1 C 11,0 C 14,1 C 28,1 C 70 % 1017,4 hPa 0,0 l/m 4,0 km/h N-NW 341 0 min 3,3 UV-I 9,4 C 14,8 C 0,0 km/h
19.09.2017 12:35 14,7 C 45,9 C 11,0 C 13,9 C 27,3 C 70 % 1017,4 hPa 0,0 l/m 4,0 km/h N-NO 26 5 min 3,3 UV-I 9,3 C 14,7 C 6,9 km/h
19.09.2017 12:30 14,6 C 43,0 C 11,0 C 13,7 C 27,6 C 71 % 1017,4 hPa 0,0 l/m 4,5 km/h W 274 5 min 3,7 UV-I 9,4 C 14,6 C 7,2 km/h
19.09.2017 12:25 14,3 C 16,5 C 11,0 C 13,6 C 24,7 C 71 % 1017,4 hPa 0,0 l/m 4,5 km/h N-NO 26 0 min 2,5 UV-I 9,1 C 14,3 C 4,2 km/h
19.09.2017 12:20 14,2 C 34,9 C 11,0 C 13,5 C 25,4 C 72 % 1017,3 hPa 0,0 l/m 4,8 km/h NO 49 5 min 2,9 UV-I 9,2 C 14,2 C 8,8 km/h
19.09.2017 12:15 14,3 C 42,3 C 10,9 C 13,5 C 24,2 C 71 % 1017,3 hPa 0,0 l/m 5,3 km/h N-NO 26 5 min 1,7 UV-I 9,1 C 14,3 C 0,0 km/h
19.09.2017 12:10 14,3 C 13,3 C 10,9 C 13,6 C 26,8 C 72 % 1017,3 hPa 0,0 l/m 9,0 km/h N-NW 341 0 min 3,0 UV-I 9,3 C 12,8 C 9,0 km/h
_ Min-Zeit 05:40 06:40 09:20 06:05 04:45 15:05 07:40 - 05:40 - - - 08:05 05:40 05:40 12:40
Minimum _ 4,9 C -22,5 C 10,2 C 7,5 C 3,1 C 62 % 1016,2 hPa - 0,0 km/h - - - 0,0 UV-I 3,9 C 4,9 C 0,0 km/h
_ Max-Zeit 15:00 14:15 15:30 15:30 12:05 09:30 11:00 15:30 12:05 - - 14:20 11:55 11:50 14:10 13:35
Maximum _ 16,2 C 46,9 C 12,1 C 15,9 C 28,7 C 94 % 1017,5 hPa 0,0 l/m 10,1 km/h
NW
- - 5 min 4,4 UV-I 10,0 C 16,2 C 19,1 km/h
NW
Durchschnitt _ 9,1 C 0,8 C 11,0 C 10,4 C 11,6 C 86 % 1016,8 hPa #0,0 l/m 3,5 km/h S-SO - #3:45 h 2,0 UV-I 6,7 C 9,0 C 4,7 km/h